SBI2571 UUDD-USMU

Flight info

Callsign SBI2571
Flight time 3h 18m
Altitude 35000
Route RILPO4T RILPO T753 TUNOB T791 NUGBI/K0835F370 T791 UHT N742 MEMBA W128 ADMAT ADMAT5E
Aircraft A320/M-SDE2E3FGHIRWXY/LB1

Departure

Time 2026-04-11 08:12
Airport Domodedovo International Airport (UUDD)

Arrival

Time 2026-04-11 11:30
Airport Novy Urengoy Airport (USMU)
Time Latitude Longitude Altitude Speed Heading
2026-04-11 07:37 55.41232 37.90126 603 ft 0 kts 236°
2026-04-11 08:00 55.41239 37.90144 604 ft 2 kts 236°
2026-04-11 08:00 55.41247 37.90166 604 ft 2 kts 236°
2026-04-11 08:00 55.41253 37.90180 604 ft 2 kts 227°
2026-04-11 08:01 55.41266 37.90194 603 ft 2 kts 194°
2026-04-11 08:01 55.41280 37.90195 603 ft 2 kts 166°
2026-04-11 08:01 55.41289 37.90189 603 ft 0 kts 148°
2026-04-11 08:01 55.41295 37.90182 603 ft 0 kts 145°
2026-04-11 08:03 55.41291 37.90187 603 ft 1 kts 146°
2026-04-11 08:03 55.41273 37.90207 603 ft 4 kts 146°
2026-04-11 08:04 55.41242 37.90224 603 ft 5 kts 196°
2026-04-11 08:04 55.41198 37.90181 603 ft 8 kts 194°
2026-04-11 08:04 55.41134 37.90144 603 ft 10 kts 221°
2026-04-11 08:04 55.41083 37.90028 603 ft 12 kts 236°
2026-04-11 08:05 55.41031 37.89894 603 ft 13 kts 235°
2026-04-11 08:05 55.40975 37.89752 603 ft 14 kts 235°
2026-04-11 08:05 55.40938 37.89611 603 ft 12 kts 244°
2026-04-11 08:05 55.40870 37.89540 603 ft 12 kts 198°
2026-04-11 08:06 55.40809 37.89433 603 ft 13 kts 236°
2026-04-11 08:06 55.40781 37.89281 603 ft 13 kts 272°
2026-04-11 08:06 55.40821 37.89128 603 ft 14 kts 315°
2026-04-11 08:06 55.40905 37.89024 603 ft 14 kts 326°
2026-04-11 08:07 55.40992 37.88921 603 ft 15 kts 326°
2026-04-11 08:07 55.41079 37.88813 603 ft 15 kts 326°
2026-04-11 08:07 55.41170 37.88705 603 ft 15 kts 326°
2026-04-11 08:08 55.41355 37.88484 603 ft 16 kts 325°
2026-04-11 08:08 55.41450 37.88369 603 ft 16 kts 325°
2026-04-11 08:08 55.41545 37.88254 603 ft 16 kts 326°
2026-04-11 08:08 55.41641 37.88138 603 ft 17 kts 326°
2026-04-11 08:09 55.41740 37.88019 603 ft 17 kts 325°
2026-04-11 08:09 55.41839 37.87900 603 ft 17 kts 326°
2026-04-11 08:09 55.41938 37.87780 603 ft 17 kts 326°
2026-04-11 08:09 55.42038 37.87660 603 ft 17 kts 326°
2026-04-11 08:10 55.42117 37.87566 603 ft 11 kts 326°
2026-04-11 08:10 55.42172 37.87485 603 ft 9 kts 297°
2026-04-11 08:10 55.42155 37.87373 603 ft 9 kts 236°
2026-04-11 08:10 55.42114 37.87271 603 ft 8 kts 232°
2026-04-11 08:11 55.42071 37.87254 603 ft 5 kts 148°
2026-04-11 08:11 55.41981 37.87363 604 ft 44 kts 145°
2026-04-11 08:11 55.41518 37.87922 604 ft 113 kts 146°
2026-04-11 08:11 55.40712 37.88892 639 ft 164 kts 144°
2026-04-11 08:12 55.39761 37.89990 1318 ft 163 kts 142°
2026-04-11 08:12 55.38813 37.90992 2086 ft 159 kts 150°
2026-04-11 08:12 55.37770 37.91640 2716 ft 161 kts 159°
2026-04-11 08:12 55.36692 37.92211 3316 ft 161 kts 156°
2026-04-11 08:13 55.35634 37.92900 3847 ft 166 kts 154°
2026-04-11 08:13 55.34527 37.93650 4256 ft 179 kts 154°
2026-04-11 08:13 55.33310 37.94484 4615 ft 196 kts 155°
2026-04-11 08:13 55.31889 37.94924 4874 ft 228 kts 184°
2026-04-11 08:14 55.30379 37.93746 5498 ft 249 kts 216°
2026-04-11 08:14 55.29363 37.91304 6272 ft 260 kts 239°
2026-04-11 08:14 55.28595 37.88401 7043 ft 264 kts 241°
2026-04-11 08:14 55.28116 37.85276 7762 ft 276 kts 269°
2026-04-11 08:15 55.28650 37.82048 8472 ft 284 kts 304°
2026-04-11 08:15 55.30064 37.79648 9038 ft 290 kts 328°
2026-04-11 08:15 55.31776 37.77772 9727 ft 295 kts 332°
2026-04-11 08:15 55.33592 37.76080 10459 ft 296 kts 344°
2026-04-11 08:16 55.35582 37.75309 11114 ft 296 kts
2026-04-11 08:16 55.37680 37.75167 11683 ft 303 kts
2026-04-11 08:16 55.39795 37.75112 12363 ft 308 kts
2026-04-11 08:16 55.41965 37.75026 13068 ft 311 kts
2026-04-11 08:17 55.44117 37.74898 13735 ft 315 kts
2026-04-11 08:17 55.46315 37.74741 14386 ft 318 kts
2026-04-11 08:17 55.48524 37.74572 15032 ft 321 kts
2026-04-11 08:17 55.50763 37.74400 15666 ft 324 kts
2026-04-11 08:18 55.52985 37.74830 16274 ft 320 kts 21°
2026-04-11 08:18 55.54985 37.76334 16887 ft 315 kts 34°
2026-04-11 08:18 55.56860 37.78277 17467 ft 317 kts 36°
2026-04-11 08:18 55.58756 37.80309 18020 ft 321 kts 36°
2026-04-11 08:19 55.60685 37.82350 18574 ft 325 kts 35°
2026-04-11 08:19 55.62620 37.84369 19120 ft 328 kts 35°
2026-04-11 08:19 55.64715 37.86119 19646 ft 337 kts 21°
2026-04-11 08:19 55.67026 37.86903 20093 ft 348 kts
2026-04-11 08:20 55.69499 37.86966 20331 ft 361 kts
2026-04-11 08:20 55.72028 37.86869 20601 ft 372 kts
2026-04-11 08:20 55.74639 37.86760 21065 ft 375 kts
2026-04-11 08:20 55.77226 37.86676 21602 ft 377 kts
2026-04-11 08:21 55.79855 37.86613 22127 ft 378 kts
2026-04-11 08:21 55.82490 37.86564 22631 ft 380 kts
2026-04-11 08:21 55.85154 37.86521 23112 ft 383 kts
2026-04-11 08:21 55.87815 37.86501 23568 ft 385 kts
2026-04-11 08:22 55.90468 37.86552 24025 ft 387 kts
2026-04-11 08:22 55.93172 37.86623 24480 ft 389 kts
2026-04-11 08:22 55.95884 37.86694 24920 ft 391 kts
2026-04-11 08:22 55.98593 37.86758 25318 ft 393 kts
2026-04-11 08:23 56.01330 37.86819 25700 ft 395 kts
2026-04-11 08:23 56.04089 37.86875 26068 ft 398 kts
2026-04-11 08:23 56.06849 37.86934 26422 ft 400 kts
2026-04-11 08:23 56.09638 37.86993 26773 ft 402 kts
2026-04-11 08:24 56.12447 37.87054 27127 ft 404 kts
2026-04-11 08:24 56.15259 37.87235 27436 ft 405 kts
2026-04-11 08:24 56.18077 37.87600 27573 ft 411 kts
2026-04-11 08:24 56.20960 37.88022 27706 ft 418 kts 10°
2026-04-11 08:25 56.23878 37.88450 27829 ft 425 kts 10°
2026-04-11 08:25 56.26815 37.88877 28005 ft 429 kts 10°
2026-04-11 08:25 56.29814 37.89303 28272 ft 431 kts 10°
2026-04-11 08:25 56.32791 37.89724 28558 ft 433 kts 10°
2026-04-11 08:26 56.35783 37.90149 28837 ft 434 kts 10°
2026-04-11 08:26 56.38818 37.90582 29111 ft 436 kts 10°
2026-04-11 08:26 56.41826 37.91000 29357 ft 438 kts 10°
2026-04-11 08:26 56.44868 37.91412 29594 ft 439 kts 10°
2026-04-11 08:27 56.47883 37.91818 29824 ft 440 kts 11°
2026-04-11 08:27 56.50941 37.92230 30041 ft 442 kts 11°
2026-04-11 08:27 56.54032 37.92649 30259 ft 443 kts 11°
2026-04-11 08:27 56.57093 37.93065 30488 ft 444 kts 11°
2026-04-11 08:28 56.60168 37.93485 30714 ft 445 kts 11°
2026-04-11 08:28 56.63184 37.94136 30912 ft 440 kts 18°
2026-04-11 08:28 56.66134 37.95493 31177 ft 432 kts 25°
2026-04-11 08:28 56.68897 37.97485 31397 ft 424 kts 32°
2026-04-11 08:29 56.71441 38.00039 31568 ft 418 kts 39°
2026-04-11 08:29 56.73778 38.03126 31727 ft 414 kts 45°
2026-04-11 08:29 56.75877 38.06617 31904 ft 410 kts 49°
2026-04-11 08:29 56.77905 38.10241 32064 ft 410 kts 50°
2026-04-11 08:30 56.79942 38.13927 32192 ft 411 kts 50°
2026-04-11 08:30 56.81959 38.17574 32308 ft 413 kts 50°
2026-04-11 08:30 56.84002 38.21265 32454 ft 414 kts 50°
2026-04-11 08:30 56.86058 38.24969 32602 ft 414 kts 49°
2026-04-11 08:31 56.88153 38.28507 32734 ft 417 kts 46°
2026-04-11 08:31 56.90349 38.31988 32867 ft 418 kts 45°
2026-04-11 08:31 56.92559 38.35442 33016 ft 418 kts 45°
2026-04-11 08:31 56.94769 38.38897 33151 ft 418 kts 45°
2026-04-11 08:32 56.96957 38.42321 33270 ft 419 kts 45°
2026-04-11 08:32 56.99174 38.45800 33381 ft 420 kts 45°
2026-04-11 08:32 57.03621 38.52799 33570 ft 423 kts 45°
2026-04-11 08:33 57.05832 38.56287 33689 ft 424 kts 45°
2026-04-11 08:33 57.08084 38.59846 33802 ft 425 kts 45°
2026-04-11 08:33 57.10298 38.63353 33931 ft 426 kts 45°
2026-04-11 08:33 57.12559 38.66941 34065 ft 427 kts 45°
2026-04-11 08:34 57.14830 38.70547 34217 ft 428 kts 45°
2026-04-11 08:34 57.17086 38.74136 34382 ft 428 kts 45°
2026-04-11 08:34 57.19310 38.77680 34527 ft 429 kts 45°
2026-04-11 08:34 57.21568 38.81287 34649 ft 429 kts 45°
2026-04-11 08:35 57.23804 38.84868 34756 ft 430 kts 45°
2026-04-11 08:35 57.26064 38.88489 34875 ft 432 kts 45°
2026-04-11 08:35 57.28344 38.92147 35012 ft 432 kts 45°
2026-04-11 08:35 57.30605 38.95781 35160 ft 432 kts 45°
2026-04-11 08:36 57.35115 39.03056 35229 ft 434 kts 45°
2026-04-11 08:36 57.39643 39.10375 35256 ft 433 kts 45°
2026-04-11 08:37 57.44152 39.17695 35246 ft 433 kts 45°
2026-04-11 08:37 57.48681 39.25071 35252 ft 432 kts 45°
2026-04-11 08:38 57.53179 39.32393 35249 ft 432 kts 45°
2026-04-11 08:38 57.57679 39.39736 35263 ft 432 kts 45°
2026-04-11 08:39 57.62185 39.47113 35264 ft 432 kts 45°
2026-04-11 08:39 57.66672 39.54489 35257 ft 432 kts 45°
2026-04-11 08:40 57.71152 39.61878 35262 ft 431 kts 45°
2026-04-11 08:40 57.75645 39.69315 35286 ft 430 kts 46°
2026-04-11 08:41 57.80113 39.76735 35282 ft 429 kts 46°
2026-04-11 08:41 57.84558 39.84145 35266 ft 429 kts 46°
2026-04-11 08:42 57.88995 39.91574 35282 ft 429 kts 47°
2026-04-11 08:43 57.95596 40.02757 35274 ft 428 kts 47°
2026-04-11 08:43 58.00021 40.10286 35285 ft 428 kts 47°
2026-04-11 08:44 58.04386 40.17740 35284 ft 428 kts 47°
2026-04-11 08:44 58.08780 40.25264 35270 ft 427 kts 47°
2026-04-11 08:45 58.13166 40.32796 35303 ft 425 kts 47°
2026-04-11 08:45 58.17510 40.40286 35294 ft 424 kts 47°
2026-04-11 08:46 58.21887 40.47763 35290 ft 424 kts 47°
2026-04-11 08:46 58.26246 40.55225 35277 ft 425 kts 47°
2026-04-11 08:47 58.30602 40.62706 35310 ft 424 kts 47°
2026-04-11 08:47 58.34964 40.70229 35312 ft 421 kts 48°
2026-04-11 08:48 58.39252 40.77654 35310 ft 420 kts 48°
2026-04-11 08:48 58.43562 40.85143 35306 ft 420 kts 48°
2026-04-11 08:49 58.47866 40.92647 35298 ft 419 kts 48°
2026-04-11 08:49 58.52155 41.00150 35311 ft 419 kts 48°
2026-04-11 08:50 58.56424 41.07642 35328 ft 418 kts 48°
2026-04-11 08:50 58.60668 41.15113 35325 ft 417 kts 49°
2026-04-11 08:51 58.64938 41.22668 35322 ft 417 kts 48°
2026-04-11 08:51 58.69151 41.30141 35296 ft 415 kts 48°
2026-04-11 08:52 58.75482 41.41374 35335 ft 415 kts 47°
2026-04-11 08:52 58.79984 41.48344 35320 ft 417 kts 43°
2026-04-11 08:53 58.84656 41.55000 35314 ft 417 kts 42°
2026-04-11 08:53 58.89284 41.61582 35325 ft 416 kts 43°
2026-04-11 08:54 58.93914 41.68197 35323 ft 415 kts 44°
2026-04-11 08:54 58.98534 41.74828 35329 ft 414 kts 43°
2026-04-11 08:55 59.03133 41.81454 35340 ft 415 kts 44°
2026-04-11 08:55 59.07749 41.88125 35356 ft 412 kts 43°
2026-04-11 08:56 59.12345 41.94784 35344 ft 413 kts 44°
2026-04-11 08:56 59.16896 42.01409 35333 ft 412 kts 44°
2026-04-11 08:57 59.21495 42.08127 35358 ft 413 kts 44°
2026-04-11 08:57 59.26053 42.14801 35352 ft 412 kts 44°
2026-04-11 08:58 59.30595 42.21480 35357 ft 410 kts 44°
2026-04-11 08:58 59.35101 42.28171 35359 ft 408 kts 45°
2026-04-11 08:59 59.39314 42.35429 35344 ft 404 kts 51°
2026-04-11 08:59 59.43145 42.43382 35347 ft 401 kts 53°
2026-04-11 09:00 59.46872 42.51481 35345 ft 399 kts 53°
2026-04-11 09:00 59.50579 42.59575 35328 ft 400 kts 53°
2026-04-11 09:01 59.54283 42.67695 35334 ft 399 kts 54°
2026-04-11 09:01 59.57963 42.75788 35336 ft 399 kts 54°
2026-04-11 09:02 59.61642 42.83901 35338 ft 399 kts 54°
2026-04-11 09:02 59.65323 42.92051 35351 ft 398 kts 54°
2026-04-11 09:03 59.69014 43.00249 35359 ft 399 kts 54°
2026-04-11 09:03 59.72668 43.08406 35359 ft 398 kts 54°
2026-04-11 09:04 59.76321 43.16571 35365 ft 399 kts 54°
2026-04-11 09:04 59.79992 43.24786 35355 ft 397 kts 54°
2026-04-11 09:05 59.83642 43.32974 35362 ft 397 kts 54°
2026-04-11 09:05 59.87270 43.41156 35362 ft 397 kts 54°
2026-04-11 09:06 59.90922 43.49416 35360 ft 397 kts 54°
2026-04-11 09:06 59.94544 43.57644 35366 ft 396 kts 54°
2026-04-11 09:07 59.98173 43.65896 35355 ft 396 kts 55°
2026-04-11 09:07 60.01773 43.74105 35349 ft 394 kts 55°
2026-04-11 09:08 60.05359 43.82313 35343 ft 393 kts 54°
2026-04-11 09:08 60.08937 43.90534 35341 ft 394 kts 54°
2026-04-11 09:09 60.12534 43.98827 35340 ft 395 kts 54°
2026-04-11 09:09 60.16141 44.07173 35341 ft 395 kts 54°
2026-04-11 09:10 60.19702 44.15447 35340 ft 394 kts 54°
2026-04-11 09:10 60.23286 44.23803 35337 ft 395 kts 54°
2026-04-11 09:11 60.26842 44.32126 35343 ft 396 kts 54°
2026-04-11 09:11 60.30429 44.40543 35263 ft 395 kts 54°
2026-04-11 09:12 60.33983 44.48915 35318 ft 397 kts 54°
2026-04-11 09:12 60.37567 44.57397 35330 ft 398 kts 54°
2026-04-11 09:13 60.41128 44.65855 35337 ft 398 kts 55°
2026-04-11 09:13 60.44705 44.74379 35349 ft 398 kts 55°
2026-04-11 09:14 60.48275 44.82918 35359 ft 398 kts 55°
2026-04-11 09:14 60.51836 44.91462 35367 ft 397 kts 55°
2026-04-11 09:15 60.55386 45.00022 35368 ft 398 kts 54°
2026-04-11 09:15 60.58926 45.08583 35361 ft 398 kts 54°
2026-04-11 09:16 60.62461 45.17171 35360 ft 398 kts 54°
2026-04-11 09:16 60.66002 45.25797 35359 ft 399 kts 54°
2026-04-11 09:17 60.69534 45.34436 35358 ft 399 kts 54°
2026-04-11 09:17 60.73076 45.43137 35359 ft 399 kts 54°
2026-04-11 09:18 60.76603 45.51774 35358 ft 399 kts 54°
2026-04-11 09:18 60.80151 45.60473 35358 ft 400 kts 54°
2026-04-11 09:19 60.83696 45.69206 35358 ft 400 kts 54°
2026-04-11 09:19 60.87254 45.78001 35358 ft 400 kts 54°
2026-04-11 09:20 60.90779 45.86746 35357 ft 400 kts 54°
2026-04-11 09:20 60.94315 45.95561 35353 ft 400 kts 54°
2026-04-11 09:21 60.97842 46.04383 35340 ft 401 kts 54°
2026-04-11 09:21 61.01364 46.13228 35339 ft 401 kts 54°
2026-04-11 09:22 61.04894 46.22144 35338 ft 401 kts 54°
2026-04-11 09:22 61.08369 46.31094 35340 ft 402 kts 54°
2026-04-11 09:23 61.11865 46.40137 35342 ft 403 kts 54°
2026-04-11 09:23 61.15333 46.49140 35346 ft 404 kts 54°
2026-04-11 09:24 61.18830 46.58241 35346 ft 404 kts 54°
2026-04-11 09:24 61.22310 46.67348 35348 ft 404 kts 55°
2026-04-11 09:25 61.25780 46.76463 35345 ft 404 kts 55°
2026-04-11 09:25 61.29260 46.85672 35346 ft 405 kts 55°
2026-04-11 09:26 61.32709 46.94830 35343 ft 405 kts 54°
2026-04-11 09:26 61.36158 47.04019 35345 ft 406 kts 54°
2026-04-11 09:27 61.39631 47.13314 35346 ft 407 kts 54°
2026-04-11 09:27 61.43093 47.22615 35351 ft 407 kts 54°
2026-04-11 09:28 61.46548 47.31946 35353 ft 408 kts 54°
2026-04-11 09:28 61.49990 47.41276 35354 ft 408 kts 54°
2026-04-11 09:29 61.53446 47.50691 35354 ft 409 kts 54°
2026-04-11 09:29 61.56878 47.60104 35352 ft 409 kts 54°
2026-04-11 09:30 61.60331 47.69615 35353 ft 410 kts 55°
2026-04-11 09:30 61.63768 47.79121 35349 ft 410 kts 55°
2026-04-11 09:31 61.67202 47.88661 35338 ft 411 kts 55°
2026-04-11 09:31 61.70652 47.98279 35337 ft 411 kts 54°
2026-04-11 09:32 61.74081 48.07880 35338 ft 411 kts 54°
2026-04-11 09:32 61.77491 48.17470 35339 ft 412 kts 54°
2026-04-11 09:33 61.80911 48.27130 35339 ft 414 kts 54°
2026-04-11 09:33 61.84352 48.36890 35344 ft 414 kts 54°
2026-04-11 09:34 61.87765 48.46615 35342 ft 414 kts 54°
2026-04-11 09:34 61.91172 48.56354 35342 ft 414 kts 54°
2026-04-11 09:35 61.94598 48.66199 35340 ft 415 kts 55°
2026-04-11 09:35 61.98003 48.76017 35340 ft 415 kts 55°
2026-04-11 09:36 62.01407 48.85880 35338 ft 416 kts 55°
2026-04-11 09:36 62.04818 48.95806 35339 ft 416 kts 55°
2026-04-11 09:37 62.08211 49.05729 35337 ft 416 kts 54°
2026-04-11 09:37 62.11610 49.15696 35336 ft 416 kts 54°
2026-04-11 09:38 62.15013 49.25658 35315 ft 417 kts 54°
2026-04-11 09:38 62.18421 49.35662 35321 ft 416 kts 54°
2026-04-11 09:39 62.21792 49.45614 35313 ft 416 kts 54°
2026-04-11 09:39 62.25171 49.55632 35309 ft 416 kts 54°
2026-04-11 09:40 62.28554 49.65707 35312 ft 416 kts 55°
2026-04-11 09:40 62.31922 49.75782 35306 ft 416 kts 55°
2026-04-11 09:41 62.35263 49.85819 35308 ft 417 kts 55°
2026-04-11 09:41 62.38618 49.95943 35304 ft 417 kts 54°
2026-04-11 09:42 62.41972 50.06111 35308 ft 417 kts 54°
2026-04-11 09:43 62.46979 50.21370 35311 ft 417 kts 54°
2026-04-11 09:43 62.50321 50.31612 35302 ft 418 kts 54°
2026-04-11 09:44 62.53638 50.41830 35302 ft 418 kts 54°
2026-04-11 09:44 62.56959 50.52040 35308 ft 418 kts 54°
2026-04-11 09:45 62.60316 50.62304 35307 ft 418 kts 53°
2026-04-11 09:45 62.63654 50.72562 35312 ft 418 kts 54°
2026-04-11 09:46 62.67003 50.82902 35313 ft 418 kts 54°
2026-04-11 09:46 62.70315 50.93179 35320 ft 418 kts 54°
2026-04-11 09:47 62.73624 51.03503 35320 ft 418 kts 54°
2026-04-11 09:47 62.76937 51.13921 35317 ft 418 kts 54°
2026-04-11 09:48 62.80225 51.24339 35311 ft 419 kts 54°
2026-04-11 09:48 62.83524 51.34826 35312 ft 420 kts 54°
2026-04-11 09:49 62.86799 51.45288 35307 ft 420 kts 54°
2026-04-11 09:49 62.90084 51.55829 35307 ft 419 kts 54°
2026-04-11 09:50 62.93360 51.66393 35299 ft 420 kts 54°
2026-04-11 09:50 62.96632 51.76996 35294 ft 420 kts 54°
2026-04-11 09:51 62.99881 51.87566 35294 ft 421 kts 54°
2026-04-11 09:51 63.03153 51.98264 35290 ft 421 kts 54°
2026-04-11 09:52 63.06411 52.08966 35289 ft 421 kts 54°
2026-04-11 09:52 63.09643 52.19633 35288 ft 421 kts 54°
2026-04-11 09:53 63.12887 52.30392 35287 ft 421 kts 54°
2026-04-11 09:53 63.16116 52.41154 35287 ft 422 kts 54°
2026-04-11 09:54 63.19329 52.51935 35284 ft 422 kts 54°
2026-04-11 09:54 63.22548 52.62827 35279 ft 422 kts 53°
2026-04-11 09:55 63.25753 52.73721 35278 ft 422 kts 54°
2026-04-11 09:55 63.28934 52.84589 35278 ft 422 kts 54°
2026-04-11 09:56 63.32113 52.95501 35278 ft 423 kts 54°
2026-04-11 09:56 63.35285 53.06440 35273 ft 423 kts 54°
2026-04-11 09:57 63.38452 53.17420 35271 ft 424 kts 54°
2026-04-11 09:57 63.41637 53.28506 35269 ft 424 kts 54°
2026-04-11 09:58 63.44785 53.39528 35266 ft 424 kts 54°
2026-04-11 09:58 63.47942 53.50626 35261 ft 424 kts 54°
2026-04-11 09:59 63.51075 53.61707 35257 ft 425 kts 53°
2026-04-11 09:59 63.54219 53.72919 35259 ft 427 kts 56°
2026-04-11 10:00 63.57006 53.84647 35261 ft 430 kts 61°
2026-04-11 10:00 63.59384 53.96906 35260 ft 430 kts 63°
2026-04-11 10:01 63.61724 54.09310 35260 ft 431 kts 63°
2026-04-11 10:01 63.64047 54.21694 35256 ft 432 kts 63°
2026-04-11 10:02 63.66361 54.34087 35253 ft 432 kts 63°
2026-04-11 10:02 63.68666 54.46505 35251 ft 432 kts 63°
2026-04-11 10:03 63.70975 54.59016 35250 ft 433 kts 63°
2026-04-11 10:03 63.73259 54.71474 35250 ft 434 kts 63°
2026-04-11 10:04 63.75552 54.84052 35246 ft 435 kts 63°
2026-04-11 10:04 63.77834 54.96654 35241 ft 435 kts 63°
2026-04-11 10:05 63.80110 55.09316 35238 ft 435 kts 63°
2026-04-11 10:05 63.82355 55.21885 35236 ft 435 kts 63°
2026-04-11 10:06 63.84664 55.34875 35232 ft 436 kts 63°
2026-04-11 10:06 63.87006 55.48077 35231 ft 437 kts 63°
2026-04-11 10:07 63.89402 55.61692 35225 ft 437 kts 63°
2026-04-11 10:07 63.91694 55.74801 35226 ft 437 kts 64°
2026-04-11 10:08 63.94002 55.88089 35227 ft 438 kts 64°
2026-04-11 10:08 63.96222 56.00971 35227 ft 439 kts 64°
2026-04-11 10:09 63.98428 56.13854 35228 ft 439 kts 64°
2026-04-11 10:09 64.00616 56.26736 35223 ft 439 kts 63°
2026-04-11 10:10 64.02821 56.39713 35220 ft 439 kts 63°
2026-04-11 10:10 64.05011 56.52652 35220 ft 439 kts 63°
2026-04-11 10:11 64.07188 56.65610 35217 ft 440 kts 64°
2026-04-11 10:11 64.09373 56.78727 35216 ft 440 kts 64°
2026-04-11 10:12 64.11541 56.91830 35204 ft 440 kts 64°
2026-04-11 10:12 64.13705 57.04994 35208 ft 441 kts 64°
2026-04-11 10:13 64.15853 57.18150 35208 ft 442 kts 64°
2026-04-11 10:13 64.18025 57.31561 35208 ft 443 kts 64°
2026-04-11 10:14 64.20200 57.45092 35203 ft 443 kts 64°
2026-04-11 10:14 64.22398 57.58855 35197 ft 443 kts 63°
2026-04-11 10:15 64.24558 57.72487 35197 ft 443 kts 64°
2026-04-11 10:15 64.26759 57.86473 35182 ft 444 kts 64°
2026-04-11 10:16 64.28921 58.00317 35180 ft 445 kts 64°
2026-04-11 10:16 64.31078 58.14262 35162 ft 446 kts 64°
2026-04-11 10:17 64.33213 58.28143 35165 ft 446 kts 64°
2026-04-11 10:17 64.35362 58.42071 35163 ft 446 kts 64°
2026-04-11 10:18 64.37487 58.55944 35171 ft 446 kts 64°
2026-04-11 10:18 64.39574 58.69690 35164 ft 446 kts 65°
2026-04-11 10:19 64.41659 58.83522 35173 ft 449 kts 65°
2026-04-11 10:19 64.42682 58.90358 35301 ft 449 kts 65°
2026-04-11 10:19 64.43697 58.97161 35478 ft 448 kts 65°
2026-04-11 10:19 64.44730 59.04115 35634 ft 447 kts 65°
2026-04-11 10:20 64.45774 59.11168 35774 ft 447 kts 65°
2026-04-11 10:20 64.46805 59.18163 35910 ft 446 kts 65°
2026-04-11 10:20 64.47826 59.25120 36043 ft 446 kts 65°
2026-04-11 10:20 64.48845 59.32090 36165 ft 446 kts 65°
2026-04-11 10:21 64.49856 59.39027 36264 ft 446 kts 65°
2026-04-11 10:21 64.50867 59.45989 36387 ft 446 kts 65°
2026-04-11 10:21 64.51862 59.52871 36553 ft 446 kts 65°
2026-04-11 10:21 64.52855 59.59781 36732 ft 446 kts 65°
2026-04-11 10:22 64.53835 59.66614 36859 ft 446 kts 66°
2026-04-11 10:22 64.54829 59.73576 36960 ft 447 kts 66°
2026-04-11 10:22 64.55811 59.80471 37045 ft 448 kts 66°
2026-04-11 10:23 64.57779 59.94397 37072 ft 448 kts 66°
2026-04-11 10:23 64.59753 60.08485 37053 ft 447 kts 66°
2026-04-11 10:24 64.61687 60.22416 37057 ft 447 kts 66°
2026-04-11 10:24 64.63637 60.36512 37064 ft 447 kts 65°
2026-04-11 10:25 64.65582 60.50493 37029 ft 447 kts 65°
2026-04-11 10:25 64.67519 60.64511 37039 ft 448 kts 65°
2026-04-11 10:26 64.69436 60.78523 37016 ft 450 kts 66°
2026-04-11 10:26 64.71372 60.92802 36999 ft 449 kts 66°
2026-04-11 10:27 64.73302 61.07165 36986 ft 450 kts 65°
2026-04-11 10:27 64.75201 61.21381 36964 ft 451 kts 65°
2026-04-11 10:28 64.77066 61.35493 36941 ft 452 kts 65°
2026-04-11 10:28 64.78936 61.49757 36971 ft 451 kts 65°
2026-04-11 10:29 64.80794 61.64066 37264 ft 451 kts 65°
2026-04-11 10:29 64.81702 61.71114 37111 ft 451 kts 66°
2026-04-11 10:29 64.82632 61.78360 37036 ft 451 kts 66°
2026-04-11 10:30 64.84471 61.92762 36987 ft 451 kts 66°
2026-04-11 10:30 64.86297 62.07190 36989 ft 452 kts 66°
2026-04-11 10:31 64.88118 62.21714 36988 ft 452 kts 66°
2026-04-11 10:31 64.89912 62.36158 36986 ft 451 kts 66°
2026-04-11 10:32 64.91682 62.50542 36967 ft 451 kts 66°
2026-04-11 10:32 64.93459 62.65115 36959 ft 452 kts 67°
2026-04-11 10:33 64.95201 62.79538 36963 ft 452 kts 67°
2026-04-11 10:33 64.96957 62.94206 36969 ft 452 kts 67°
2026-04-11 10:34 64.98701 63.08929 36963 ft 453 kts 67°
2026-04-11 10:34 65.00425 63.23616 36964 ft 454 kts 66°
2026-04-11 10:35 65.02132 63.38290 36961 ft 453 kts 67°
2026-04-11 10:35 65.03831 63.53050 36957 ft 454 kts 66°
2026-04-11 10:36 65.05513 63.67799 36958 ft 455 kts 68°
2026-04-11 10:36 65.07191 63.82661 36957 ft 455 kts 68°
2026-04-11 10:37 65.08876 63.97751 36943 ft 456 kts 68°
2026-04-11 10:37 65.10518 64.12596 36935 ft 456 kts 68°
2026-04-11 10:38 65.12134 64.27360 36928 ft 456 kts 68°
2026-04-11 10:38 65.14579 64.49983 36929 ft 456 kts 67°
2026-04-11 10:39 65.16163 64.64833 36932 ft 457 kts 67°
2026-04-11 10:39 65.17703 64.79426 36926 ft 458 kts 68°
2026-04-11 10:40 65.19236 64.94099 36920 ft 458 kts 68°
2026-04-11 10:40 65.20765 65.08885 36915 ft 459 kts 68°
2026-04-11 10:41 65.22269 65.23609 36902 ft 458 kts 68°
2026-04-11 10:41 65.23769 65.38435 36890 ft 459 kts 68°
2026-04-11 10:42 65.25276 65.53487 36886 ft 460 kts 68°
2026-04-11 10:42 65.26738 65.68276 36880 ft 460 kts 69°
2026-04-11 10:43 65.28896 65.90472 36878 ft 460 kts 69°
2026-04-11 10:44 65.30315 66.05352 36875 ft 461 kts 69°
2026-04-11 10:44 65.31724 66.20301 36877 ft 461 kts 69°
2026-04-11 10:45 65.33109 66.35157 36873 ft 461 kts 69°
2026-04-11 10:45 65.34487 66.50107 36862 ft 462 kts 69°
2026-04-11 10:46 65.35847 66.65075 36851 ft 461 kts 69°
2026-04-11 10:46 65.37223 66.80082 36853 ft 462 kts 69°
2026-04-11 10:47 65.38594 66.95118 36837 ft 462 kts 69°
2026-04-11 10:47 65.39947 67.10150 36837 ft 462 kts 69°
2026-04-11 10:48 65.41280 67.25182 36822 ft 463 kts 69°
2026-04-11 10:48 65.42595 67.40183 36831 ft 462 kts 69°
2026-04-11 10:49 65.43902 67.55252 36824 ft 464 kts 69°
2026-04-11 10:49 65.45194 67.70374 36823 ft 463 kts 70°
2026-04-11 10:50 65.46473 67.85532 36813 ft 464 kts 70°
2026-04-11 10:50 65.47738 68.00697 36806 ft 465 kts 70°
2026-04-11 10:51 65.48982 68.15836 36808 ft 465 kts 70°
2026-04-11 10:51 65.50219 68.31068 36806 ft 466 kts 70°
2026-04-11 10:52 65.51444 68.46364 36796 ft 466 kts 70°
2026-04-11 10:52 65.52654 68.61672 36800 ft 465 kts 70°
2026-04-11 10:53 65.53852 68.77032 36792 ft 466 kts 71°
2026-04-11 10:53 65.55026 68.92302 36803 ft 467 kts 71°
2026-04-11 10:54 65.56186 69.07614 36800 ft 467 kts 71°
2026-04-11 10:54 65.57333 69.22988 36800 ft 466 kts 71°
2026-04-11 10:55 65.58468 69.38389 36794 ft 467 kts 70°
2026-04-11 10:55 65.59585 69.53792 36800 ft 467 kts 70°
2026-04-11 10:56 65.60689 69.69225 36793 ft 468 kts 71°
2026-04-11 10:56 65.61783 69.84747 36788 ft 470 kts 71°
2026-04-11 10:57 65.62852 70.00172 36771 ft 470 kts 71°
2026-04-11 10:57 65.63914 70.15730 36768 ft 468 kts 71°
2026-04-11 10:58 65.64956 70.31242 36766 ft 468 kts 72°
2026-04-11 10:58 65.65976 70.46684 36766 ft 469 kts 72°
2026-04-11 10:59 65.66978 70.62213 36768 ft 469 kts 72°
2026-04-11 10:59 65.67912 70.77856 36764 ft 471 kts 73°
2026-04-11 11:00 65.68835 70.93690 36768 ft 472 kts 73°
2026-04-11 11:00 65.69734 71.09391 36769 ft 472 kts 73°
2026-04-11 11:01 65.70621 71.25136 36766 ft 471 kts 73°
2026-04-11 11:01 65.71497 71.40938 36765 ft 472 kts 73°
2026-04-11 11:02 65.72348 71.56612 36764 ft 470 kts 73°
2026-04-11 11:02 65.73180 71.72289 36758 ft 470 kts 75°
2026-04-11 11:03 65.74007 71.88065 36661 ft 471 kts 75°
2026-04-11 11:03 65.74412 71.95963 36440 ft 470 kts 75°
2026-04-11 11:03 65.74810 72.03815 36205 ft 468 kts 75°
2026-04-11 11:03 65.75199 72.11567 35983 ft 467 kts 74°
2026-04-11 11:04 65.75588 72.19420 35731 ft 465 kts 74°
2026-04-11 11:04 65.75968 72.27124 35347 ft 463 kts 74°
2026-04-11 11:04 65.76348 72.34884 34823 ft 465 kts 74°
2026-04-11 11:04 65.76720 72.42620 34224 ft 466 kts 74°
2026-04-11 11:05 65.77093 72.50436 33625 ft 468 kts 73°
2026-04-11 11:05 65.77465 72.58323 32999 ft 472 kts 73°
2026-04-11 11:05 65.77837 72.66254 32294 ft 476 kts 73°
2026-04-11 11:05 65.78208 72.74254 31533 ft 481 kts 73°
2026-04-11 11:06 65.78582 72.82365 30723 ft 486 kts 73°
2026-04-11 11:06 65.78952 72.90443 29936 ft 486 kts 73°
2026-04-11 11:06 65.79316 72.98595 29357 ft 480 kts 73°
2026-04-11 11:06 65.79664 73.06498 28829 ft 473 kts 73°
2026-04-11 11:07 65.80007 73.14416 28310 ft 467 kts 73°
2026-04-11 11:07 65.80344 73.22232 27792 ft 461 kts 73°
2026-04-11 11:07 65.80669 73.29858 27285 ft 456 kts 73°
2026-04-11 11:07 65.80996 73.37545 26771 ft 451 kts 74°
2026-04-11 11:08 65.81307 73.44997 26257 ft 446 kts 74°
2026-04-11 11:08 65.81612 73.52447 25767 ft 441 kts 74°
2026-04-11 11:08 65.81912 73.59825 25284 ft 436 kts 74°
2026-04-11 11:08 65.82201 73.67141 24756 ft 433 kts 76°
2026-04-11 11:09 65.82480 73.74389 24231 ft 429 kts 76°
2026-04-11 11:09 65.82753 73.81585 23727 ft 425 kts 76°
2026-04-11 11:09 65.83021 73.88695 23238 ft 421 kts 77°
2026-04-11 11:09 65.83282 73.95742 22739 ft 417 kts 77°
2026-04-11 11:10 65.83534 74.02653 22248 ft 413 kts 77°
2026-04-11 11:10 65.83781 74.09555 21768 ft 408 kts 77°
2026-04-11 11:10 65.84026 74.16386 21292 ft 404 kts 78°
2026-04-11 11:10 65.84265 74.23202 20801 ft 401 kts 78°
2026-04-11 11:11 65.84493 74.29883 20328 ft 398 kts 78°
2026-04-11 11:11 65.84720 74.36558 19861 ft 394 kts 78°
2026-04-11 11:11 65.84996 74.43193 19381 ft 388 kts 75°
2026-04-11 11:11 65.85446 74.49573 18888 ft 382 kts 70°
2026-04-11 11:12 65.86083 74.55833 18371 ft 377 kts 67°
2026-04-11 11:12 65.86773 74.61910 17896 ft 374 kts 66°
2026-04-11 11:12 65.87470 74.67976 17423 ft 370 kts 68°
2026-04-11 11:12 65.88160 74.74000 16962 ft 367 kts 68°
2026-04-11 11:13 65.88841 74.80013 16492 ft 365 kts 68°
2026-04-11 11:13 65.89509 74.85951 16026 ft 362 kts 69°
2026-04-11 11:13 65.90166 74.91836 15571 ft 359 kts 69°
2026-04-11 11:13 65.90807 74.97613 15129 ft 356 kts 69°
2026-04-11 11:14 65.91452 75.03445 14674 ft 354 kts 69°
2026-04-11 11:14 65.92090 75.09241 14230 ft 351 kts 69°
2026-04-11 11:14 65.92718 75.14983 13781 ft 349 kts 69°
2026-04-11 11:14 65.93336 75.20656 13338 ft 346 kts 70°
2026-04-11 11:15 65.93953 75.26340 12892 ft 344 kts 70°
2026-04-11 11:15 65.94555 75.31911 12462 ft 341 kts 70°
2026-04-11 11:15 65.95158 75.37505 12023 ft 339 kts 70°
2026-04-11 11:15 65.95672 75.43085 11585 ft 339 kts 77°
2026-04-11 11:16 65.95873 75.48859 11133 ft 340 kts 85°
2026-04-11 11:16 65.95792 75.54668 10665 ft 339 kts 89°
2026-04-11 11:16 65.95637 75.60380 10257 ft 335 kts 90°
2026-04-11 11:16 65.95469 75.65991 9969 ft 326 kts 91°
2026-04-11 11:17 65.95307 75.71446 9858 ft 312 kts 91°
2026-04-11 11:17 65.95155 75.76648 9777 ft 298 kts 91°
2026-04-11 11:17 65.95013 75.81634 9697 ft 287 kts 90°
2026-04-11 11:17 65.94877 75.86532 9346 ft 287 kts 90°
2026-04-11 11:18 65.94743 75.91397 8992 ft 286 kts 90°
2026-04-11 11:18 65.94608 75.96205 8658 ft 284 kts 90°
2026-04-11 11:18 65.94471 76.01029 8327 ft 282 kts 90°
2026-04-11 11:18 65.94337 76.05724 8008 ft 280 kts 91°
2026-04-11 11:19 65.94199 76.10476 7687 ft 277 kts 91°
2026-04-11 11:19 65.94061 76.15163 7367 ft 276 kts 91°
2026-04-11 11:19 65.93922 76.19828 7049 ft 274 kts 91°
2026-04-11 11:19 65.93784 76.24441 6735 ft 272 kts 91°
2026-04-11 11:20 65.93645 76.29047 6419 ft 270 kts 91°
2026-04-11 11:20 65.93507 76.33561 6108 ft 268 kts 91°
2026-04-11 11:20 65.93366 76.38135 5794 ft 267 kts 91°
2026-04-11 11:20 65.93227 76.42638 5485 ft 265 kts 91°
2026-04-11 11:21 65.93086 76.47121 5182 ft 264 kts 91°
2026-04-11 11:21 65.92944 76.51558 4880 ft 263 kts 91°
2026-04-11 11:21 65.92801 76.56011 4572 ft 262 kts 90°
2026-04-11 11:21 65.92657 76.60456 4265 ft 261 kts 91°
2026-04-11 11:22 65.92516 76.64833 3959 ft 260 kts 91°
2026-04-11 11:22 65.92368 76.69272 3649 ft 259 kts 93°
2026-04-11 11:22 65.92223 76.73632 3372 ft 255 kts 92°
2026-04-11 11:22 65.92078 76.77823 3333 ft 242 kts 92°
2026-04-11 11:23 65.91942 76.81809 3309 ft 228 kts 93°
2026-04-11 11:23 65.91857 76.85605 3258 ft 224 kts 81°
2026-04-11 11:23 65.92449 76.88953 3175 ft 211 kts 36°
2026-04-11 11:23 65.93713 76.90444 3151 ft 200 kts 10°
2026-04-11 11:24 65.95077 76.91222 2993 ft 205 kts
2026-04-11 11:24 65.96465 76.92083 2718 ft 206 kts 11°
2026-04-11 11:24 65.97815 76.93024 2454 ft 205 kts 12°
2026-04-11 11:24 65.99182 76.94036 2188 ft 205 kts 12°
2026-04-11 11:25 66.00552 76.94263 1986 ft 191 kts 336°
2026-04-11 11:25 66.01503 76.92413 2024 ft 169 kts 303°
2026-04-11 11:25 66.02014 76.89815 2065 ft 168 kts 292°
2026-04-11 11:25 66.02438 76.87147 2024 ft 167 kts 291°
2026-04-11 11:26 66.02824 76.84455 2003 ft 167 kts 289°
2026-04-11 11:26 66.03185 76.81731 2003 ft 168 kts 288°
2026-04-11 11:26 66.03525 76.79072 1981 ft 157 kts 289°
2026-04-11 11:26 66.03834 76.76635 1974 ft 147 kts 288°
2026-04-11 11:27 66.04139 76.74224 1909 ft 148 kts 288°
2026-04-11 11:27 66.04441 76.71847 1721 ft 142 kts 288°
2026-04-11 11:27 66.04720 76.69656 1511 ft 129 kts 286°
2026-04-11 11:27 66.04987 76.67583 1344 ft 128 kts 289°
2026-04-11 11:28 66.05254 76.65509 1162 ft 127 kts 289°
2026-04-11 11:28 66.05519 76.63431 986 ft 126 kts 288°
2026-04-11 11:28 66.05784 76.61366 805 ft 126 kts 288°
2026-04-11 11:28 66.06049 76.59312 621 ft 126 kts 288°
2026-04-11 11:29 66.06579 76.55225 275 ft 126 kts 288°
2026-04-11 11:29 66.06837 76.53219 191 ft 115 kts 288°
2026-04-11 11:29 66.07031 76.51717 197 ft 66 kts 287°
2026-04-11 11:30 66.07119 76.51032 201 ft 26 kts 288°
2026-04-11 11:30 66.07162 76.50708 203 ft 14 kts 288°
2026-04-11 11:30 66.07191 76.50558 204 ft 6 kts 304°
2026-04-11 11:30 66.07174 76.50561 204 ft 6 kts 108°
2026-04-11 11:31 66.07158 76.50703 203 ft 11 kts 107°
2026-04-11 11:31 66.07130 76.50921 202 ft 15 kts 108°
2026-04-11 11:31 66.07097 76.51179 200 ft 16 kts 108°
2026-04-11 11:31 66.07059 76.51471 199 ft 18 kts 107°
2026-04-11 11:32 66.07021 76.51779 197 ft 17 kts 108°
2026-04-11 11:32 66.07008 76.52006 196 ft 11 kts 69°
2026-04-11 11:32 66.07076 76.52110 195 ft 13 kts 18°
2026-04-11 11:32 66.07138 76.52181 194 ft 8 kts 63°
2026-04-11 11:33 66.07125 76.52343 193 ft 11 kts 109°
2026-04-11 11:33 66.07114 76.52490 193 ft 8 kts 60°
2026-04-11 11:33 66.07153 76.52537 192 ft 4 kts 18°
2026-04-11 11:33 66.07173 76.52553 192 ft 2 kts 18°
2026-04-11 11:34 66.07178 76.52557 192 ft 0 kts 18°